Regional Weather Roundup
Issued by NWS

Home | Current Version | Previous Version | Text Only | Print | Product List | Glossary Off
Versions: 1 2 3 4 5 6 7 8 9 10 11 12 13 14 15 16 17 18 19 20 21 22 23 24 25 26 27 28 29 30 31 32 33 34 35 36 37 38 39 40 41 42 43 44 45 46 47 48 49 50

000
ASUS43 KFSD 211502
RWRSD

WEATHER ROUNDUP FOR SOUTH DAKOTA
NATIONAL WEATHER SERVICE SIOUX FALLS SD
1000 AM CDT FRI JUL 21 2017

NOTE: "FAIR" INDICATES FEW OR NO CLOUDS BELOW 12,000 FEET WITH NO
SIGNIFICANT WEATHER AND/OR OBSTRUCTIONS TO VISIBILITY.


SDZ001>005-009-010-012>017-211600-
NORTHWEST AND NORTH CENTRAL SOUTH DAKOTA

CITY           SKY/WX    TMP DP  RH WIND       PRES   REMARKS
BUFFALO          N/A     76  66  71 W13       29.82R
FAITH            N/A     75  72  90 SW12      29.84S
MOBRIDGE       MOSUNNY   80  71  74 SW13      29.80R
$$

SDZ012>016-024>037-041>051-057-063-072>074-211600-
SOUTHWEST AND SOUTH CENTRAL SOUTH DAKOTA

CITY           SKY/WX    TMP DP  RH WIND       PRES   REMARKS
RAPID CTY ARPT MOSUNNY   73  66  78 SW7       29.90R
PIERRE         NOT AVBL
CUSTER         CLOUDY    75  53  46 W9        30.05R
ELLSWORTH AFB  MOSUNNY   75  68  79 SW8       29.90R
PHILIP         SUNNY     81  70  69 W3        29.82S
PINE RIDGE     SUNNY     75  68  78 W7        29.92F
SPEARFISH      FAIR      79  61  53 W8        29.96R
WINNER         FAIR      80  71  74 CALM      29.81R
$$

SDZ004>011-016>023-039-040-211600-
NORTHEAST SOUTH DAKOTA

CITY           SKY/WX    TMP DP  RH WIND       PRES   REMARKS
ABERDEEN       PTSUNNY   78  73  84 E7        29.80S
WATERTOWN      CLOUDY    75  71  87 S12       29.78F
BROOKINGS      PTSUNNY   74  70  87 E15G21    29.80F
SISSETON         N/A     76  72  87 VRB3      29.79S
$$

SDZ017-020-022-023-036>040-048>070-211600-
SOUTHEAST SOUTH DAKOTA

CITY           SKY/WX    TMP DP  RH WIND       PRES   REMARKS
SIOUX FALLS    CLOUDY    74  71  91 SE13      29.81F
HURON          CLOUDY    76  72  87 SE6       29.78R
CHAMBERLAIN    CLOUDY    80  75  86 E3        29.81R
MITCHELL       CLOUDY    78  71  79 SE5       29.80R
YANKTON        PTSUNNY   76  70  82 E15       29.78F
$$

ABBREVIATIONS USED IN REMARKS
   TC - TEMPERATURE IN CELSIUS
  WCI - WIND CHILL INDEX
   HX - HEAT INDEX
  VSB - VISIBILITY





USA.gov is the U.S. government's official web portal to all federal, state and local government web resources and services.